When you browse on this site, cookies collect data to enhance your experience and personalize the content and advertising you see.
Visit our Privacy Policy to learn more. By continuing to use the site, you agree to this use of cookies and data.
  • In Czech Republic
  • List of Countries
  • For 7 days
  • Water Temperature
  • Satellite Maps
  • Weather Map
  • Weather Widgets
  • user-avatar
    Login

    Hourly Weather Matca

    Today, 11 December, Tuesday

    Time Temperature Precipitation Wind Pressure Humidity
    00:00 +1°C° 0 mm 3 mps 750 mmHg 81%
    01:00 +1°C° 0 mm 3 mps 750 mmHg 82%
    02:00 +1°C° 0 mm 3 mps 750 mmHg 81%
    03:00 +1°C° 0.1 mm 3 mps 750 mmHg 83%
    04:00 0°C° 0.1 mm 4 mps 750 mmHg 84%
    05:00 0°C° 0.1 mm 4 mps 750 mmHg 85%
    06:00 0°C° 0.1 mm 4 mps 750 mmHg 85%
    07:00 0°C° 0.1 mm 4 mps 751 mmHg 86%
    08:00 0°C° 0.1 mm 4 mps 751 mmHg 86%
    09:00 0°C° 0 mm 5 mps 751 mmHg 81%
    10:00 +1°C° 0 mm 5 mps 751 mmHg 76%
    11:00 +2°C° 0 mm 5 mps 752 mmHg 71%
    12:00 +2°C° 0 mm 5 mps 752 mmHg 70%
    13:00 +2°C° 0 mm 5 mps 752 mmHg 68%
    14:00 +3°C° 0 mm 5 mps 752 mmHg 67%
    15:00 +3°C° 0 mm 4 mps 752 mmHg 72%
    16:00 +1°C° 0 mm 4 mps 753 mmHg 77%
    17:00 +1°C° 0 mm 3 mps 753 mmHg 82%
    18:00 0°C° 0 mm 3 mps 753 mmHg 83%
    19:00 0°C° 0 mm 3 mps 754 mmHg 85%
    20:00 0°C° 0 mm 3 mps 754 mmHg 86%
    21:00 -1°C° 0 mm 3 mps 754 mmHg 85%
    22:00 -1°C° 0 mm 3 mps 754 mmHg 85%
    23:00 -1°C° 0 mm 3 mps 754 mmHg 84%

    Tomorrow, 12 December, Wednesday

    Time Temperature Precipitation Wind Pressure Humidity
    00:00 -1°C° 0 mm 3 mps 754 mmHg 83%
    01:00 -1°C° 0 mm 2 mps 754 mmHg 82%
    02:00 -1°C° 0 mm 2 mps 754 mmHg 81%
    03:00 -1°C° 0 mm 2 mps 754 mmHg 81%
    04:00 -1°C° 0 mm 2 mps 754 mmHg 81%
    05:00 -1°C° 0 mm 2 mps 754 mmHg 81%
    06:00 -1°C° 0 mm 2 mps 755 mmHg 81%
    07:00 -2°C° 0 mm 2 mps 755 mmHg 81%
    08:00 -2°C° 0 mm 2 mps 755 mmHg 80%
    09:00 +1°C° 0 mm 2 mps 755 mmHg 74%
    10:00 +2°C° 0 mm 2 mps 755 mmHg 67%
    11:00 +3°C° 0 mm 2 mps 755 mmHg 61%
    12:00 +4°C° 0 mm 2 mps 755 mmHg 58%
    13:00 +4°C° 0 mm 2 mps 755 mmHg 56%
    14:00 +5°C° 0 mm 2 mps 755 mmHg 53%
    15:00 +3°C° 0 mm 2 mps 755 mmHg 58%
    16:00 +2°C° 0 mm 2 mps 755 mmHg 62%
    17:00 +2°C° 0 mm 1 mps 755 mmHg 67%
    18:00 +2°C° 0 mm 1 mps 755 mmHg 68%
    19:00 +2°C° 0 mm 1 mps 755 mmHg 69%
    20:00 +1°C° 0 mm 1 mps 756 mmHg 71%
    21:00 +1°C° 0 mm 1 mps 756 mmHg 72%
    22:00 +1°C° 0 mm 1 mps 756 mmHg 72%
    23:00 +1°C° 0 mm 1 mps 756 mmHg 73%

    Day after tomorrow, 13 December, Thursday

    Time Temperature Precipitation Wind Pressure Humidity
    00:00 +1°C° 0 mm 1 mps 756 mmHg 73%
    01:00 +1°C° 0 mm 1 mps 756 mmHg 73%
    02:00 +1°C° 0 mm 1 mps 756 mmHg 73%
    03:00 -1°C° 0 mm 2 mps 756 mmHg 73%
    04:00 -1°C° 0 mm 2 mps 756 mmHg 73%
    05:00 -1°C° 0 mm 2 mps 755 mmHg 73%
    06:00 -2°C° 0 mm 2 mps 756 mmHg 73%
    07:00 -2°C° 0 mm 2 mps 756 mmHg 73%
    08:00 -2°C° 0 mm 2 mps 756 mmHg 73%
    09:00 0°C° 0 mm 3 mps 756 mmHg 67%
    10:00 +1°C° 0 mm 3 mps 756 mmHg 61%
    11:00 +2°C° 0 mm 3 mps 756 mmHg 55%
    12:00 +3°C° 0 mm 3 mps 756 mmHg 54%
    13:00 +3°C° 0 mm 3 mps 756 mmHg 52%
    14:00 +4°C° 0 mm 3 mps 755 mmHg 51%
    15:00 +3°C° 0 mm 3 mps 756 mmHg 56%
    16:00 +3°C° 0 mm 2 mps 756 mmHg 60%
    17:00 +1°C° 0 mm 2 mps 756 mmHg 65%
    18:00 +1°C° 0 mm 2 mps 756 mmHg 67%
    19:00 +1°C° 0 mm 2 mps 757 mmHg 69%
    20:00 +1°C° 0 mm 2 mps 757 mmHg 71%
    21:00 +1°C° 0 mm 1 mps 757 mmHg 72%
    22:00 +1°C° 0 mm 1 mps 757 mmHg 73%
    23:00 +1°C° 0 mm 1 mps 757 mmHg 74%

    14 December, Friday

    Time Temperature Precipitation Wind Pressure Humidity
    00:00 +1°C° 0 mm 1 mps 757 mmHg 75%
    01:00 +1°C° 0 mm 1 mps 758 mmHg 75%
    02:00 +1°C° 0 mm 1 mps 758 mmHg 75%
    03:00 0°C° 0 mm 1 mps 758 mmHg 76%
    04:00 0°C° 0 mm 1 mps 758 mmHg 76%
    05:00 0°C° 0 mm 1 mps 758 mmHg 76%
    06:00 0°C° 0 mm 1 mps 759 mmHg 77%
    07:00 0°C° 0 mm 1 mps 759 mmHg 77%
    08:00 0°C° 0 mm 1 mps 759 mmHg 78%
    09:00 +1°C° 0 mm 1 mps 760 mmHg 72%
    10:00 +2°C° 0 mm 1 mps 760 mmHg 67%
    11:00 +3°C° 0 mm 1 mps 760 mmHg 61%
    12:00 +4°C° 0 mm 1 mps 760 mmHg 60%
    13:00 +4°C° 0 mm 1 mps 760 mmHg 58%
    14:00 +5°C° 0 mm 1 mps 760 mmHg 57%
    15:00 +3°C° 0 mm 1 mps 760 mmHg 63%
    16:00 +2°C° 0 mm 1 mps 761 mmHg 68%
    17:00 +1°C° 0 mm 1 mps 761 mmHg 74%
    18:00 +1°C° 0 mm 1 mps 761 mmHg 76%
    19:00 0°C° 0 mm 0 mps 762 mmHg 77%
    20:00 -1°C° 0 mm 0 mps 762 mmHg 79%
    21:00 0°C° 0 mm 1 mps 762 mmHg 80%
    22:00 0°C° 0 mm 1 mps 762 mmHg 81%
    23:00 0°C° 0 mm 1 mps 763 mmHg 83%

    15 December, Saturday

    Time Temperature Precipitation Wind Pressure Humidity
    00:00 0°C° 0 mm 1 mps 763 mmHg 84%
    01:00 0°C° 0 mm 1 mps 763 mmHg 85%
    02:00 0°C° 0 mm 1 mps 763 mmHg 86%
    03:00 0°C° 0 mm 1 mps 763 mmHg 86%
    04:00 0°C° 0 mm 1 mps 763 mmHg 86%
    05:00 0°C° 0 mm 1 mps 763 mmHg 86%
    06:00 -1°C° 0 mm 1 mps 763 mmHg 87%
    07:00 -3°C° 0 mm 2 mps 763 mmHg 87%
    08:00 -3°C° 0 mm 2 mps 763 mmHg 87%
    09:00 -2°C° 0.1 mm 2 mps 763 mmHg 83%
    10:00 -1°C° 0.1 mm 2 mps 763 mmHg 80%
    11:00 +1°C° 0.1 mm 2 mps 763 mmHg 76%
    12:00 +1°C° 0.2 mm 2 mps 763 mmHg 76%
    13:00 0°C° 0.2 mm 3 mps 763 mmHg 76%
    14:00 0°C° 0.2 mm 3 mps 763 mmHg 76%
    15:00 0°C° 0.2 mm 3 mps 763 mmHg 79%
    16:00 0°C° 0.2 mm 3 mps 763 mmHg 82%
    17:00 -1°C° 0.2 mm 3 mps 763 mmHg 85%
    18:00 -1°C° 0.3 mm 3 mps 763 mmHg 86%
    19:00 -1°C° 0.3 mm 3 mps 763 mmHg 88%
    20:00 -2°C° 0.3 mm 4 mps 763 mmHg 89%
    21:00 -2°C° 0.4 mm 4 mps 763 mmHg 90%
    22:00 -2°C° 0.4 mm 4 mps 763 mmHg 91%
    23:00 -2°C° 0.4 mm 4 mps 763 mmHg 92%

    16 December, Sunday

    Time Temperature Precipitation Wind Pressure Humidity
    00:00 -2°C° 0.4 mm 4 mps 763 mmHg 92%
    01:00 -2°C° 0.4 mm 4 mps 763 mmHg 91%
    02:00 -2°C° 0.4 mm 5 mps 763 mmHg 91%
    03:00 -2°C° 0.3 mm 5 mps 762 mmHg 91%
    04:00 -2°C° 0.3 mm 5 mps 762 mmHg 90%
    05:00 -2°C° 0.3 mm 5 mps 762 mmHg 90%
    06:00 -2°C° 0.3 mm 5 mps 762 mmHg 90%
    07:00 -2°C° 0.3 mm 5 mps 762 mmHg 90%
    08:00 -2°C° 0.3 mm 5 mps 763 mmHg 90%
    09:00 -2°C° 0.2 mm 5 mps 763 mmHg 90%
    10:00 -2°C° 0.2 mm 5 mps 763 mmHg 90%
    11:00 -2°C° 0.2 mm 5 mps 763 mmHg 90%
    12:00 -2°C° 0.2 mm 5 mps 763 mmHg 90%
    13:00 -2°C° 0.2 mm 5 mps 763 mmHg 90%
    14:00 -1°C° 0.2 mm 5 mps 762 mmHg 90%
    15:00 -1°C° 0.2 mm 4 mps 763 mmHg 90%
    16:00 -2°C° 0.2 mm 4 mps 763 mmHg 91%
    17:00 -2°C° 0.2 mm 4 mps 763 mmHg 91%
    18:00 -2°C° 0.4 mm 4 mps 763 mmHg 92%
    19:00 -2°C° 0.4 mm 4 mps 763 mmHg 93%
    20:00 -1°C° 0.4 mm 3 mps 763 mmHg 94%
    21:00 -1°C° 0.1 mm 3 mps 763 mmHg 94%
    22:00 -1°C° 0.1 mm 3 mps 763 mmHg 94%
    23:00 -1°C° 0.1 mm 3 mps 763 mmHg 94%
    Show more